Location: Splawn
(30.9202°N, 96.9858°W)
Time: 04:31:31
(UTC+00:00)

Envisat - Visible Passes

Search period start: 19 January 2020 00:00
Search period end: 29 January 2020 00:00
Orbit: 764 x 766 km, 98.1° (Epoch: 18 January)

Date Brightness Start Highest point End Pass type
(mag) Time Alt. Az. Time Alt. Az. Time Alt. Az.
19 Jan 4.8 01:06:39 10° SSW 01:11:13 34° W 01:15:50 10° NNW visible
19 Jan 6.5 11:45:29 10° E 11:46:13 10° E 11:46:58 10° E visible
20 Jan 3.1 00:29:21 10° SSE 00:34:25 86° WSW 00:39:31 10° NNW visible
20 Jan 4.1 12:43:53 10° NNE 12:48:49 51° E 12:53:44 10° S visible
21 Jan 5.8 01:33:24 10° SW 01:36:51 18° W 01:40:18 10° NW visible
21 Jan 5.8 12:08:09 10° NE 12:11:54 21° E 12:15:39 10° SE visible
22 Jan 4.2 00:55:05 10° S 00:59:54 45° W 01:04:46 10° NNW visible
23 Jan 3.0 00:18:06 10° SSE 00:23:08 73° ENE 00:28:13 10° N visible
23 Jan 4.6 12:32:46 10° NNE 12:37:30 39° E 12:42:13 10° SSE visible
24 Jan 5.4 01:21:27 10° SSW 01:25:29 24° W 01:29:32 10° NW visible
24 Jan 6.1 11:57:32 10° ENE 12:00:33 16° E 12:03:33 10° SE visible
25 Jan 3.7 00:43:37 10° S 00:48:36 59° W 00:53:37 10° NNW visible
26 Jan 6.3 01:49:08 10° WSW 01:51:09 12° W 01:53:11 10° WNW visible
26 Jan 5.2 12:21:45 10° NE 12:26:11 30° E 12:30:34 10° SSE visible
27 Jan 5.0 01:09:41 10° SSW 01:14:08 31° W 01:18:37 10° NW visible
27 Jan 6.4 11:47:24 10° ENE 11:49:10 12° E 11:50:55 10° ESE visible
28 Jan 3.2 00:32:15 10° S 00:37:18 78° WSW 00:42:24 10° NNW visible
28 Jan 3.8 12:46:43 10° NNE 12:51:44 57° E 12:56:42 10° S visible
